EIN60H EIDW-EHAM

Flight info

Callsign EIN60H
Flight time 1h 9m
Altitude 37000
Route ENDEQ1E ENDEQ Q36 ALAVA Z195 MALUD UL975 WAL M16 DOLAS L603 LAMSO
Aircraft A320/M-SDE3FGHIRWY/LB1

Departure

Time 2026-05-04 07:40
Airport Dublin Airport (EIDW)

Arrival

Time 2026-05-04 08:49
Airport Amsterdam Airport Schiphol (EHAM)
Time Latitude Longitude Altitude Speed Heading
2026-05-04 07:20 53.42378 -6.24168 211 ft 0 kts 315°
2026-05-04 07:26 53.42376 -6.24164 211 ft 3 kts 314°
2026-05-04 07:27 53.42360 -6.24128 214 ft 4 kts 292°
2026-05-04 07:27 53.42353 -6.24086 212 ft 4 kts 270°
2026-05-04 07:27 53.42357 -6.24042 212 ft 4 kts 243°
2026-05-04 07:27 53.42365 -6.24022 219 ft 0 kts 224°
2026-05-04 07:31 53.42345 -6.24051 219 ft 8 kts 224°
2026-05-04 07:33 53.42171 -6.24563 211 ft 13 kts 276°
2026-05-04 07:33 53.42185 -6.24792 211 ft 22 kts 276°
2026-05-04 07:33 53.42197 -6.25054 211 ft 23 kts 275°
2026-05-04 07:33 53.42213 -6.25334 211 ft 25 kts 276°
2026-05-04 07:34 53.42229 -6.25613 211 ft 24 kts 275°
2026-05-04 07:34 53.42242 -6.25852 214 ft 21 kts 275°
2026-05-04 07:34 53.42254 -6.26071 211 ft 15 kts 276°
2026-05-04 07:34 53.42262 -6.26224 211 ft 12 kts 276°
2026-05-04 07:35 53.42267 -6.26314 211 ft 11 kts 276°
2026-05-04 07:35 53.42273 -6.26440 211 ft 11 kts 274°
2026-05-04 07:35 53.42284 -6.26626 211 ft 21 kts 276°
2026-05-04 07:35 53.42300 -6.26892 211 ft 24 kts 275°
2026-05-04 07:36 53.42314 -6.27202 211 ft 12 kts 272°
2026-05-04 07:36 53.42325 -6.27357 215 ft 15 kts 277°
2026-05-04 07:38 53.42399 -6.29026 214 ft 11 kts 237°
2026-05-04 07:38 53.42335 -6.29079 210 ft 10 kts 182°
2026-05-04 07:38 53.42264 -6.29063 209 ft 10 kts 165°
2026-05-04 07:38 53.42241 -6.28994 209 ft 1 kts 95°
2026-05-04 07:39 53.42241 -6.28981 209 ft 1 kts 95°
2026-05-04 07:39 53.42237 -6.28895 213 ft 33 kts 94°
2026-05-04 07:39 53.42189 -6.28041 216 ft 109 kts 95°
2026-05-04 07:39 53.42104 -6.26452 288 ft 155 kts 90°
2026-05-04 07:40 53.42011 -6.24658 944 ft 153 kts 91°
2026-05-04 07:40 53.41913 -6.22887 1642 ft 155 kts 92°
2026-05-04 07:40 53.41811 -6.20979 2047 ft 174 kts 92°
2026-05-04 07:40 53.41699 -6.18884 2517 ft 184 kts 92°
2026-05-04 07:41 53.41575 -6.16660 2941 ft 202 kts 91°
2026-05-04 07:41 53.41441 -6.14184 3332 ft 229 kts 92°
2026-05-04 07:41 53.41287 -6.11394 3906 ft 251 kts 93°
2026-05-04 07:41 53.41117 -6.08417 4764 ft 260 kts 93°
2026-05-04 07:42 53.40945 -6.05389 5749 ft 264 kts 91°
2026-05-04 07:42 53.41031 -6.02291 6736 ft 267 kts 81°
2026-05-04 07:42 53.41246 -5.99172 7627 ft 272 kts 82°
2026-05-04 07:42 53.41471 -5.95992 8530 ft 277 kts 82°
2026-05-04 07:43 53.41698 -5.92765 9457 ft 281 kts 82°
2026-05-04 07:43 53.41927 -5.89478 10302 ft 288 kts 82°
2026-05-04 07:43 53.41970 -5.88870 10381 ft 292 kts 82°
2026-05-04 07:43 53.42183 -5.85790 10748 ft 309 kts 82°
2026-05-04 07:44 53.42440 -5.82071 11097 ft 330 kts 82°
2026-05-04 07:44 53.42705 -5.78195 11763 ft 338 kts 82°
2026-05-04 07:44 53.42972 -5.74243 12538 ft 343 kts 83°
2026-05-04 07:44 53.43236 -5.70293 13330 ft 347 kts 82°
2026-05-04 07:45 53.43506 -5.66235 14083 ft 352 kts 83°
2026-05-04 07:45 53.43775 -5.62139 14796 ft 355 kts 82°
2026-05-04 07:45 53.44044 -5.58011 15532 ft 357 kts 82°
2026-05-04 07:45 53.44316 -5.53850 16233 ft 360 kts 83°
2026-05-04 07:46 53.44542 -5.49645 16936 ft 364 kts 87°
2026-05-04 07:46 53.44470 -5.45366 17545 ft 370 kts 91°
2026-05-04 07:46 53.44361 -5.41021 18174 ft 375 kts 91°
2026-05-04 07:46 53.44248 -5.36627 18791 ft 378 kts 91°
2026-05-04 07:47 53.44138 -5.32209 19413 ft 381 kts 91°
2026-05-04 07:47 53.44025 -5.27754 20021 ft 383 kts 91°
2026-05-04 07:47 53.43905 -5.23272 20644 ft 386 kts 91°
2026-05-04 07:49 53.43089 -4.95957 24025 ft 400 kts 91°
2026-05-04 07:49 53.42930 -4.91285 24470 ft 402 kts 91°
2026-05-04 07:49 53.42772 -4.86591 24914 ft 404 kts 90°
2026-05-04 07:50 53.42616 -4.81885 25342 ft 405 kts 90°
2026-05-04 07:50 53.42457 -4.77149 25768 ft 407 kts 90°
2026-05-04 07:50 53.42296 -4.72399 26188 ft 409 kts 90°
2026-05-04 07:50 53.42135 -4.67630 26597 ft 411 kts 90°
2026-05-04 07:51 53.41973 -4.62837 27008 ft 412 kts 90°
2026-05-04 07:51 53.41808 -4.58027 27390 ft 414 kts 90°
2026-05-04 07:51 53.41639 -4.53191 27771 ft 416 kts 90°
2026-05-04 07:51 53.41467 -4.48338 28148 ft 418 kts 90°
2026-05-04 07:52 53.41291 -4.43462 28519 ft 420 kts 90°
2026-05-04 07:52 53.41114 -4.38557 28873 ft 421 kts 90°
2026-05-04 07:52 53.40937 -4.33643 29211 ft 423 kts 90°
2026-05-04 07:52 53.40754 -4.28711 29547 ft 425 kts 90°
2026-05-04 07:53 53.40564 -4.23760 29864 ft 426 kts 90°
2026-05-04 07:54 53.39925 -3.89010 31875 ft 423 kts 82°
2026-05-04 07:55 53.40179 -3.84097 32188 ft 422 kts 82°
2026-05-04 07:55 53.40431 -3.79195 32504 ft 422 kts 82°
2026-05-04 07:55 53.40680 -3.74299 32821 ft 421 kts 82°
2026-05-04 07:55 53.40924 -3.69409 33133 ft 420 kts 82°
2026-05-04 07:56 53.41165 -3.64529 33455 ft 420 kts 82°
2026-05-04 07:56 53.41287 -3.59639 33778 ft 422 kts 89°
2026-05-04 07:56 53.41081 -3.54711 34027 ft 424 kts 91°
2026-05-04 07:56 53.40859 -3.49781 34260 ft 425 kts 91°
2026-05-04 07:57 53.40636 -3.44838 34496 ft 426 kts 91°
2026-05-04 07:57 53.40416 -3.39873 34708 ft 427 kts 91°
2026-05-04 07:57 53.40195 -3.34902 34919 ft 429 kts 92°
2026-05-04 07:57 53.39973 -3.29978 35119 ft 430 kts 92°
2026-05-04 07:58 53.39743 -3.24979 35318 ft 431 kts 92°
2026-05-04 07:58 53.39507 -3.19953 35512 ft 432 kts 92°
2026-05-04 07:58 53.39267 -3.14913 35702 ft 434 kts 92°
2026-05-04 07:58 53.39034 -3.09871 35892 ft 435 kts 92°
2026-05-04 07:59 53.38833 -3.04815 36055 ft 437 kts 92°
2026-05-04 07:59 53.38651 -2.99722 36215 ft 439 kts 92°
2026-05-04 07:59 53.38476 -2.94617 36379 ft 440 kts 92°
2026-05-04 07:59 53.38297 -2.89492 36564 ft 441 kts 92°
2026-05-04 08:00 53.38110 -2.84371 36737 ft 442 kts 92°
2026-05-04 08:00 53.37913 -2.79231 36915 ft 443 kts 92°
2026-05-04 08:00 53.37709 -2.74065 37040 ft 444 kts 93°
2026-05-04 08:02 53.36209 -2.37812 37057 ft 447 kts 94°
2026-05-04 08:02 53.35751 -2.27420 37058 ft 448 kts 94°
2026-05-04 08:03 53.34774 -2.17110 37056 ft 448 kts 98°
2026-05-04 08:03 53.33726 -2.06888 37058 ft 448 kts 99°
2026-05-04 08:04 53.32665 -1.96605 37053 ft 449 kts 99°
2026-05-04 08:04 53.31593 -1.86305 37052 ft 449 kts 98°
2026-05-04 08:05 53.30504 -1.76004 37055 ft 450 kts 99°
2026-05-04 08:05 53.29405 -1.65697 37058 ft 451 kts 99°
2026-05-04 08:06 53.28304 -1.55381 37061 ft 451 kts 99°
2026-05-04 08:06 53.27189 -1.45051 37050 ft 452 kts 100°
2026-05-04 08:08 53.22678 -1.04185 37061 ft 455 kts 101°
2026-05-04 08:11 53.17296 -0.57159 37057 ft 459 kts 101°
2026-05-04 08:11 53.15471 -0.41559 37064 ft 459 kts 101°
2026-05-04 08:12 53.14236 -0.31118 37060 ft 459 kts 102°
2026-05-04 08:12 53.12987 -0.20695 37060 ft 459 kts 102°
2026-05-04 08:13 53.11729 -0.10267 37059 ft 459 kts 102°
2026-05-04 08:13 53.10474 0.00153 37045 ft 459 kts 103°
2026-05-04 08:14 53.09200 0.10581 37047 ft 459 kts 102°
2026-05-04 08:16 53.04023 0.52172 37026 ft 461 kts 103°
2026-05-04 08:16 53.02701 0.62590 37031 ft 461 kts 103°
2026-05-04 08:17 53.01372 0.73020 37030 ft 461 kts 103°
2026-05-04 08:17 53.00035 0.83443 37021 ft 461 kts 103°
2026-05-04 08:19 52.94966 1.25141 37025 ft 462 kts 102°
2026-05-04 08:20 52.93957 1.33925 37031 ft 462 kts 102°
2026-05-04 08:20 52.92732 1.44306 37030 ft 462 kts 102°
2026-05-04 08:21 52.91485 1.54776 37023 ft 463 kts 103°
2026-05-04 08:21 52.90222 1.65243 37016 ft 463 kts 103°
2026-05-04 08:22 52.88957 1.75714 37018 ft 464 kts 103°
2026-05-04 08:24 52.83819 2.17608 37009 ft 465 kts 103°
2026-05-04 08:24 52.82517 2.28013 37009 ft 465 kts 103°
2026-05-04 08:25 52.81191 2.38496 37011 ft 465 kts 104°
2026-05-04 08:25 52.79853 2.48974 37011 ft 465 kts 104°
2026-05-04 08:27 52.74418 2.90848 37013 ft 467 kts 104°
2026-05-04 08:28 52.72663 3.01022 36998 ft 462 kts 118°
2026-05-04 08:28 52.69516 3.10215 36990 ft 460 kts 123°
2026-05-04 08:29 52.66302 3.19349 36992 ft 461 kts 123°
2026-05-04 08:31 52.56730 3.58212 36387 ft 472 kts 102°
2026-05-04 08:33 52.52673 3.95864 31361 ft 448 kts 104°
2026-05-04 08:33 52.52278 4.00892 30974 ft 439 kts 102°
2026-05-04 08:35 52.50640 4.34409 25133 ft 402 kts 99°
2026-05-04 08:35 52.50388 4.38948 24136 ft 400 kts 98°
2026-05-04 08:35 52.50122 4.43610 22490 ft 417 kts 98°
2026-05-04 08:35 52.49847 4.48397 20867 ft 426 kts 97°
2026-05-04 08:37 52.48244 4.77314 12059 ft 412 kts 96°
2026-05-04 08:37 52.47978 4.81948 10739 ft 403 kts 96°
2026-05-04 08:37 52.47715 4.86468 9384 ft 393 kts 96°
2026-05-04 08:38 52.47454 4.90880 7987 ft 383 kts 96°
2026-05-04 08:38 52.47170 4.95181 6627 ft 373 kts 97°
2026-05-04 08:38 52.47234 4.99358 5254 ft 363 kts 78°
2026-05-04 08:40 52.49225 5.19023 3487 ft 223 kts 152°
2026-05-04 08:40 52.47808 5.19784 3488 ft 212 kts 176°
2026-05-04 08:40 52.46379 5.19510 3493 ft 202 kts 201°
2026-05-04 08:41 52.45233 5.18392 3501 ft 187 kts 224°
2026-05-04 08:41 52.44491 5.16796 3503 ft 168 kts 244°
2026-05-04 08:41 52.44162 5.15047 3471 ft 150 kts 263°
2026-05-04 08:41 52.44179 5.13410 3482 ft 147 kts 279°
2026-05-04 08:42 52.44494 5.11755 3412 ft 158 kts 291°
2026-05-04 08:42 52.44905 5.10085 3334 ft 158 kts 291°
2026-05-04 08:42 52.45314 5.08420 3297 ft 158 kts 291°
2026-05-04 08:42 52.45725 5.06750 3262 ft 158 kts 291°
2026-05-04 08:43 52.46029 5.05031 3230 ft 157 kts 277°
2026-05-04 08:43 52.46020 5.03241 3194 ft 158 kts 261°
2026-05-04 08:43 52.45702 5.01525 3132 ft 158 kts 244°
2026-05-04 08:43 52.45032 5.00105 3059 ft 159 kts 225°
2026-05-04 08:44 52.44242 4.98850 2993 ft 157 kts 224°
2026-05-04 08:44 52.43434 4.97636 2988 ft 158 kts 223°
2026-05-04 08:46 52.37711 4.89359 1675 ft 155 kts 221°
2026-05-04 08:46 52.36913 4.88211 1465 ft 155 kts 221°
2026-05-04 08:46 52.36121 4.87073 1250 ft 145 kts 221°
2026-05-04 08:46 52.35396 4.86031 1063 ft 137 kts 220°
2026-05-04 08:47 52.34691 4.85020 883 ft 134 kts 220°
2026-05-04 08:47 52.33996 4.84022 703 ft 132 kts 220°
2026-05-04 08:47 52.33308 4.83037 532 ft 131 kts 220°
2026-05-04 08:47 52.32622 4.82052 365 ft 131 kts 221°
2026-05-04 08:48 52.31935 4.81076 198 ft 131 kts 220°
2026-05-04 08:48 52.31259 4.80098 9 ft 129 kts 220°
2026-05-04 08:48 52.30674 4.79262 -3 ft 98 kts 220°
2026-05-04 08:48 52.30265 4.78677 -4 ft 55 kts 221°
2026-05-04 08:49 52.30123 4.78443 -3 ft 4 kts 309°
2026-05-04 08:50 52.30378 4.77996 0 ft 18 kts 311°
2026-05-04 08:50 52.30465 4.77837 0 ft 20 kts 311°
2026-05-04 08:51 52.30542 4.77708 -1 ft 13 kts 320°
2026-05-04 08:51 52.30616 4.77651 -1 ft 11 kts 332°
2026-05-04 08:51 52.30636 4.77555 -1 ft 9 kts 268°
2026-05-04 08:51 52.30639 4.77462 -1 ft 8 kts 269°
2026-05-04 08:52 52.30639 4.77405 -1 ft 4 kts 270°
2026-05-04 08:52 52.30640 4.77366 -1 ft 3 kts 273°
2026-05-04 08:52 52.30640 4.77362 -1 ft 0 kts 274°
2026-05-04 08:54 52.30648 4.77158 -1 ft 5 kts 272°
2026-05-04 08:55 52.30649 4.77113 -1 ft 4 kts 272°
2026-05-04 08:55 52.30650 4.77076 -1 ft 2 kts 272°
2026-05-04 08:55 52.30651 4.77061 -1 ft 0 kts 272°
2026-05-04 08:55 52.30651 4.77057 -1 ft 0 kts 272°
2026-05-04 08:57 52.30718 4.77026 -1 ft 0 kts